FW3855 Weather Reports


time (UTC)temp
C
wind
direction
speed
KPH
gust
KPH
rain 1hr
cm
rain 24hr
cm
rain mn
cm
humidity
%
barometer
mb
20260508192354 30 317 4.8 14.5 0.00 0.00 0.00 1 1017.0
20260508191352 30 45 6.4 22.5 0.00 0.00 0.00 2 1017.0
20260508190853 29 283 6.4 22.5 0.00 0.00 0.00 2 1017.0
20260508190354 29 296 9.7 22.5 0.00 0.00 0.00 2 1017.2
20260508185850 29 11 9.7 22.5 0.00 0.00 0.00 2 1017.2
20260508185350 30 281 8.0 17.7 0.00 0.00 0.00 2 1017.2
20260508184853 29 294 9.7 30.6 0.00 0.00 0.00 2 1017.3
20260508184351 29 5 6.4 30.6 0.00 0.00 0.00 2 1017.4
20260508183853 28 249 8.0 22.5 0.00 0.00 0.00 3 1017.3
20260508183349 28 229 11.3 24.1 0.00 0.00 0.00 3 1017.4
20260508182854 28 314 9.7 24.1 0.00 0.00 0.00 2 1017.5
20260508182354 28 291 8.0 19.3 0.00 0.00 0.00 2 1017.4
20260508181851 28 287 6.4 17.7 0.00 0.00 0.00 2 1017.4
20260508180848 28 259 6.4 17.7 0.00 0.00 0.00 2 1017.5
20260508180348 28 303 6.4 22.5 0.00 0.00 0.00 2 1017.6
20260508175843 28 274 8.0 22.5 0.00 0.00 0.00 2 1017.6
20260508175344 28 271 8.0 20.9 0.00 0.00 0.00 3 1017.6
20260508174344 28 339 6.4 14.5 0.00 0.00 0.00 2 1017.6
20260508173847 28 198 6.4 14.5 0.00 0.00 0.00 3 1017.6
20260508172844 27 309 6.4 17.7 0.00 0.00 0.00 3 1017.6
20260508171843 28 291 4.8 17.7 0.00 0.00 0.00 3 1017.6
20260508171344 28 195 3.2 11.3 0.00 0.00 0.00 3 1017.6
20260508170847 27 300 4.8 12.9 0.00 0.00 0.00 3 1017.6
20260508165850 27 288 4.8 12.9 0.00 0.00 0.00 4 1017.6
20260508165350 27 287 4.8 16.1 0.00 0.00 0.00 4 1017.7
20260508164842 27 294 3.2 16.1 0.00 0.00 0.00 3 1017.7
20260508164343 27 250 3.2 12.9 0.00 0.00 0.00 4 1017.7
20260508163340 27 264 4.8 11.3 0.00 0.00 0.00 4 1017.7
20260508162839 27 262 4.8 16.1 0.00 0.00 0.00 4 1017.6
20260508162338 27 326 4.8 16.1 0.00 0.00 0.00 4 1017.6
20260508161841 27 258 4.8 14.5 0.00 0.00 0.00 4 1017.5
20260508161337 27 274 3.2 14.5 0.00 0.00 0.00 4 1017.5
20260508160838 27 290 3.2 16.1 0.00 0.00 0.00 4 1017.5
20260508160334 27 186 4.8 16.1 0.00 0.00 0.00 4 1017.5
20260508155835 26 200 3.2 9.7 0.00 0.00 0.00 5 1017.4
20260508154832 27 344 3.2 9.7 0.00 0.00 0.00 4 1017.4
20260508154333 26 122 3.2 11.3 0.00 0.00 0.00 4 1017.5
20260508153830 27 288 4.8 11.3 0.00 0.00 0.00 4 1017.5
20260508153335 27 295 4.8 12.9 0.00 0.00 0.00 4 1017.4
20260508152830 26 186 3.2 12.9 0.00 0.00 0.00 4 1017.4
20260508151834 26 298 3.2 8.0 0.00 0.00 0.00 5 1017.4
20260508150834 26 294 3.2 9.7 0.00 0.00 0.00 5 1017.4
20260508145832 26 218 3.2 11.3 0.00 0.00 0.00 5 1017.4
20260508145331 26 269 4.8 14.5 0.00 0.00 0.00 5 1017.4
20260508144825 26 217 6.4 14.5 0.00 0.00 0.00 6 1017.3
20260508144326 26 191 4.8 14.5 0.00 0.00 0.00 6 1017.4
20260508143829 26 134 3.2 11.3 0.00 0.00 0.00 5 1017.4
20260508143326 25 276 3.2 9.7 0.00 0.00 0.00 5 1017.4
20260508142817 25 136 4.8 9.7 0.00 0.00 0.00 5 1017.3
20260508142312 25 164 4.8 12.9 0.00 0.00 0.00 5 1017.3
20260508141807 25 169 6.4 14.5 0.00 0.00 0.00 6 1017.2
20260508141259 25 229 6.4 14.5 0.00 0.00 0.00 6 1017.0
20260508140754 24 188 6.4 14.5 0.00 0.00 0.00 7 1017.0
20260508140249 24 101 6.4 14.5 0.00 0.00 0.00 7 1016.9
20260508135742 24 174 6.4 16.1 0.00 0.00 0.00 7 1016.9
20260508135237 23 192 8.0 16.1 0.00 0.00 0.00 7 1016.9
20260508134731 23 169 6.4 16.1 0.00 0.00 0.00 7 1016.9
20260508134224 23 162 6.4 16.1 0.00 0.00 0.00 8 1016.8
20260508133718 23 159 4.8 11.3 0.00 0.00 0.00 8 1016.8
20260508133211 23 214 3.2 12.9 0.00 0.00 0.00 8 1016.8
20260508132201 22 206 3.2 11.3 0.00 0.00 0.00 8 1016.7
20260508131653 21 173 3.2 9.7 0.00 0.00 0.00 9 1016.6
20260508131148 21 199 3.2 9.7 0.00 0.00 0.00 9 1016.6
20260508130640 21 183 4.8 9.7 0.00 0.00 0.00 8 1016.6
20260508130135 21 172 3.2 9.7 0.00 0.00 0.00 8 1016.5
20260508125628 21 123 3.2 8.0 0.00 0.00 0.00 8 1016.5
20260508125124 21 247 3.2 8.0 0.00 0.00 0.00 8 1016.5
20260508124110 21 153 3.2 9.7 0.00 0.00 0.00 8 1016.4
20260508123604 21 215 3.2 9.7 0.00 0.00 0.00 8 1016.2
20260508123059 21 224 3.2 9.7 0.00 0.00 0.00 8 1016.2
20260508122551 21 169 4.8 14.5 0.00 0.00 0.00 8 1016.2
20260508121033 21 203 6.4 16.1 0.00 0.00 0.00 8 1016.2
20260508120531 21 200 6.4 16.1 0.00 0.00 0.00 8 1016.2
20260508120024 20 219 4.8 9.7 0.00 0.00 0.00 8 1016.1
20260508115519 20 208 4.8 9.7 0.00 0.00 0.00 8 1016.2
20260508115015 21 169 4.8 12.9 0.00 0.00 0.00 7 1016.1
20260508114506 21 155 4.8 12.9 0.00 0.00 0.00 7 1016.1
20260508113454 21 196 1.6 8.0 0.00 0.00 0.00 7 1016.2
20260508112946 21 240 3.2 9.7 0.00 0.00 0.00 6 1016.2
20260508112442 21 260 3.2 9.7 0.00 0.00 0.00 6 1016.2
20260508111933 21 188 4.8 16.1 0.00 0.00 0.00 6 1016.0
20260508111427 21 230 4.8 16.1 0.00 0.00 0.00 6 1016.0
20260508110922 21 164 4.8 14.5 0.00 0.00 0.00 6 1016.1
20260508110417 21 224 3.2 12.9 0.00 0.00 0.00 6 1016.1
20260508105909 21 147 3.2 8.0 0.00 0.00 0.00 6 1016.1
20260508105406 21 210 3.2 12.9 0.00 0.00 0.00 6 1016.2
20260508104900 22 292 4.8 16.1 0.00 0.00 0.00 6 1016.4
20260508104359 22 274 6.4 19.3 0.00 0.00 0.00 6 1016.2
20260508103845 22 227 4.8 19.3 0.00 0.00 0.00 6 1016.4
20260508102833 21 284 3.2 14.5 0.00 0.00 0.00 6 1016.2
20260508102330 21 252 3.2 11.3 0.00 0.00 0.00 6 1016.1
20260508101315 21 255 3.2 6.4 0.00 0.00 0.00 6 1016.2
20260508100810 21 226 3.2 11.3 0.00 0.00 0.00 6 1016.2
20260508095252 21 233 3.2 8.0 0.00 0.00 0.00 5 1016.2
20260508094746 21 175 3.2 6.4 0.00 0.00 0.00 4 1016.4
20260508094246 21 163 3.2 6.4 0.00 0.00 0.00 3 1016.4
20260508093745 21 216 1.6 6.4 0.00 0.00 0.00 3 1016.4
20260508092747 21 185 3.2 11.3 0.00 0.00 0.00 2 1016.5
20260508092246 21 246 3.2 11.3 0.00 0.00 0.00 2 1016.2
20260508091743 21 133 1.6 9.7 0.00 0.00 0.00 2 1016.2
20260508090242 22 188 3.2 16.1 0.00 0.00 0.00 2 1016.2
20260508085741 21 221 1.6 16.1 0.00 0.00 0.00 2 1016.4
20260508085241 21 125 1.6 9.7 0.00 0.00 0.00 1 1016.4
20260508084746 22 103 1.6 11.3 0.00 0.00 0.00 1 1016.5
20260508083745 22 242 6.4 16.1 0.00 0.00 0.00 2 1016.5
20260508083248 22 282 8.0 17.7 0.00 0.00 0.00 2 1016.5
20260508082738 22 101 6.4 17.7 0.00 0.00 0.00 1 1016.6
20260508082229 22 220 6.4 17.7 0.00 0.00 0.00 1 1016.5
20260508081722 22 283 6.4 17.7 0.00 0.00 0.00 2 1016.5
20260508081221 22 267 6.4 16.1 0.00 0.00 0.00 2 1016.5
20260508080719 22 221 6.4 17.7 0.00 0.00 0.00 2 1016.6
20260508080219 22 292 4.8 17.7 0.00 0.00 0.00 2 1016.5
20260508075719 22 231 3.2 9.7 0.00 0.00 0.00 2 1016.6
20260508075223 22 165 4.8 12.9 0.00 0.00 0.00 1 1016.6
20260508074718 22 158 4.8 17.7 0.00 0.00 0.00 1 1016.7
20260508074219 21 210 3.2 17.7 0.00 0.00 0.00 2 1016.7
20260508073721 21 259 3.2 11.3 0.00 0.00 0.00 2 1016.7
20260508072715 20 234 3.2 11.3 0.00 0.00 0.00 3 1016.7
20260508072217 18 229 3.2 6.4 0.00 0.00 0.00 4 1016.7
20260508071717 18 181 3.2 6.4 0.00 0.00 0.00 4 1016.8
20260508071215 18 219 3.2 6.4 0.00 0.00 0.00 4 1016.7
20260508070714 18 207 1.6 6.4 0.00 0.00 0.00 4 1016.7
20260508070221 17 182 1.6 4.8 0.00 0.00 0.00 4 1016.7
20260508065718 18 197 1.6 4.8 0.00 0.00 0.00 4 1016.6
20260508065218 18 177 3.2 6.4 0.00 0.00 0.00 3 1016.6
20260508064723 18 192 4.8 8.0 0.00 0.00 0.00 3 1016.6
20260508064216 18 219 4.8 8.0 0.00 0.00 0.00 3 1016.7
20260508063719 18 197 4.8 6.4 0.00 0.00 0.00 3 1016.7
20260508062215 17 188 3.2 6.4 0.00 0.00 0.00 3 1016.7
20260508061215 17 191 1.6 4.8 0.00 0.00 0.00 3 1016.6
20260508060718 17 170 3.2 4.8 0.00 0.00 0.00 3 1016.6
20260508060215 17 179 1.6 4.8 0.00 0.00 0.00 3 1016.6
20260508055715 18 187 0.0 3.2 0.00 0.00 0.00 3 1016.5
20260508055217 18 197 1.6 3.2 0.00 0.00 0.00 2 1016.6
20260508054215 20 170 1.6 4.8 0.00 0.00 0.00 2 1016.5
20260508053717 20 90 1.6 8.0 0.00 0.00 0.00 1 1016.5
20260508053211 20 201 1.6 8.0 0.00 0.00 0.00 1 1016.4
20260508052710 20 192 1.6 4.8 0.00 0.00 0.00 1 1016.4
20260508052211 21 212 1.6 6.4 0.00 0.00 0.00 1 1016.4
20260508051715 21 211 3.2 6.4 0.00 0.00 0.00 1 1016.5
20260508051209 21 214 4.8 9.7 0.00 0.00 0.00 1 1016.6
20260508050711 22 211 4.8 11.3 0.00 0.00 0.00 1 1016.5
20260508050206 22 245 6.4 11.3 0.00 0.00 0.00 1 1016.6
20260508045705 22 203 6.4 9.7 0.00 0.00 0.00 1 1016.7
20260508045159 22 149 4.8 9.7 0.00 0.00 0.00 1 1016.7
20260508044655 22 209 3.2 9.7 0.00 0.00 0.00 1 1016.7
20260508044148 22 243 1.6 6.4 0.00 0.00 0.00 1 1016.7
20260508043652 22 230 1.6 4.8 0.00 0.00 0.00 1 1016.7
20260508043149 22 207 3.2 6.4 0.00 0.00 0.00 1 1016.6
20260508042145 22 303 3.2 9.7 0.00 0.00 0.00 1 1016.7
20260508041646 23 303 4.8 9.7 0.00 0.00 0.00 1 1016.7
20260508041146 23 242 3.2 9.7 0.00 0.00 0.00 1 1016.6
20260508040646 22 236 1.6 8.0 0.00 0.00 0.00 1 1016.6
20260508040145 22 296 1.6 8.0 0.00 0.00 0.00 1 1016.6
20260508035644 22 234 1.6 9.7 0.00 0.00 0.00 1 1016.5
20260508035144 23 272 3.2 9.7 0.00 0.00 0.00 1 1016.5
20260508034643 23 295 3.2 8.0 0.00 0.00 0.00 1 1016.5
20260508033644 23 293 4.8 12.9 0.00 0.00 0.00 1 1016.5
20260508033141 23 294 4.8 12.9 0.00 0.00 0.00 1 1016.2
20260508032641 22 306 3.2 8.0 0.00 0.00 0.00 1 1016.2
20260508032141 22 267 3.2 12.9 0.00 0.00 0.00 1 1016.2
20260508031636 22 291 3.2 12.9 0.00 0.00 0.00 1 1016.2
20260508030117 23 284 3.2 12.9 0.00 0.00 0.00 1 1016.1
20260508025611 23 293 3.2 12.9 0.00 0.00 0.00 1 1016.1
20260508024559 23 296 1.6 8.0 0.00 0.00 0.00 2 1015.9
20260508024054 23 302 1.6 9.7 0.00 0.00 0.00 2 1015.8
20260508023548 23 107 3.2 9.7 0.00 0.00 0.00 2 1015.8
20260508023041 23 295 4.8 12.9 0.00 0.00 0.00 2 1015.7
20260508022536 24 301 4.8 14.5 0.00 0.00 0.00 2 1015.6
20260508022032 24 257 6.4 14.5 0.00 0.00 0.00 2 1015.6
20260508021020 24 291 3.2 9.7 0.00 0.00 0.00 2 1015.3
20260508015459 25 309 3.2 11.3 0.00 0.00 0.00 2 1015.2
20260508014954 25 285 3.2 11.3 0.00 0.00 0.00 2 1015.2
20260508014447 26 317 4.8 11.3 0.00 0.00 0.00 1 1015.1
20260508013942 27 281 4.8 11.3 0.00 0.00 0.00 1 1015.1
20260508013436 27 323 4.8 11.3 0.00 0.00 0.00 1 1015.0
20260508012423 27 308 6.4 16.1 0.00 0.00 0.00 1 1015.0
20260508011917 27 328 6.4 16.1 0.00 0.00 0.00 1 1015.0
20260508011412 27 343 4.8 11.3 0.00 0.00 0.00 1 1015.1
20260508010906 27 290 4.8 11.3 0.00 0.00 0.00 1 1015.0
20260508010402 27 299 6.4 12.9 0.00 0.00 0.00 1 1015.0
20260508005853 27 331 6.4 14.5 0.00 0.00 0.00 1 1015.0
20260508005347 27 334 6.4 12.9 0.00 0.00 0.00 1 1015.0
20260508004844 27 310 4.8 12.9 0.00 0.00 0.00 1 1014.9
20260508004336 27 329 6.4 12.9 0.00 0.00 0.00 1 1014.9
20260508003829 27 319 6.4 16.1 0.00 0.00 0.00 1 1014.9
20260508003326 27 283 9.7 25.7 0.00 0.00 0.00 1 1014.9
20260508002820 28 281 6.4 25.7 0.00 0.00 0.00 1 1014.9
20260508002311 28 311 4.8 16.1 0.00 0.00 0.00 1 1014.9
20260508001808 28 294 6.4 16.1 0.00 0.00 0.00 1 1015.0
20260508000312 28 309 3.2 12.9 0.00 0.00 0.00 1 1015.0
20260507235809 28 254 6.4 16.1 0.00 0.00 0.00 1 1015.0
20260507234809 28 282 6.4 17.7 0.00 0.00 0.00 1 1015.3
20260507233807 28 123 4.8 17.7 0.00 0.00 0.00 1 1015.2
20260507233306 28 259 4.8 17.7 0.00 0.00 0.00 1 1015.2
20260507232809 28 290 3.2 9.7 0.00 0.00 0.00 1 1015.3
20260507231808 28 300 6.4 17.7 0.00 0.00 0.00 1 1015.4
20260507231306 28 359 3.2 17.7 0.00 0.00 0.00 1 1015.4
20260507230807 28 295 1.6 14.5 0.00 0.00 0.00 1 1015.3
20260507230309 27 73 6.4 16.1 0.00 0.00 0.00 1 1015.4
20260507225306 27 314 6.4 17.7 0.00 0.00 0.00 1 1015.6
20260507224801 27 291 6.4 14.5 0.00 0.00 0.00 1 1015.6
20260507223746 27 239 6.4 14.5 0.00 0.00 0.00 1 1015.7
20260507223240 28 287 4.8 16.1 0.00 0.00 0.00 1 1015.7
20260507222737 28 257 6.4 16.1 0.00 0.00 0.00 1 1015.8
20260507221726 28 307 6.4 16.1 0.00 0.00 0.00 1 1016.0
20260507221217 27 268 8.0 17.7 0.00 0.00 0.00 1 1016.0
20260507220711 27 308 6.4 17.7 0.00 0.00 0.00 1 1016.0
20260507215701 27 352 6.4 11.3 0.00 0.00 0.00 1 1016.1
20260507214648 27 32 6.4 17.7 0.00 0.00 0.00 1 1016.2
20260507214153 27 73 4.8 12.9 0.00 0.00 0.00 1 1016.4
20260507213648 27 304 6.4 14.5 0.00 0.00 0.00 1 1016.4
20260507213147 27 310 8.0 16.1 0.00 0.00 0.00 1 1016.6
20260507212653 27 305 6.4 16.1 0.00 0.00 0.00 1 1016.6
20260507212148 27 348 6.4 16.1 0.00 0.00 0.00 1 1016.7
20260507211651 27 326 6.4 17.7 0.00 0.00 0.00 1 1016.8
20260507211154 27 283 8.0 17.7 0.00 0.00 0.00 1 1016.8
20260507210651 27 344 6.4 16.1 0.00 0.00 0.00 1 1016.9
20260507210154 27 295 3.2 16.1 0.00 0.00 0.00 1 1017.0
20260507205655 28 77 1.6 11.3 0.00 0.00 0.00 1 1017.0
20260507205152 27 311 4.8 16.1 0.00 0.00 0.00 1 1017.0
20260507203149 26 342 8.0 19.3 0.00 0.00 0.00 1 1017.6
20260507202648 26 292 6.4 19.3 0.00 0.00 0.00 1 1017.5
20260507202148 26 336 6.4 16.1 0.00 0.00 0.00 1 1017.5
20260507201650 26 300 6.4 16.1 0.00 0.00 0.00 1 1017.5
20260507201150 26 33 8.0 17.7 0.00 0.00 0.00 1 1017.6
20260507200148 26 5 4.8 12.9 0.00 0.00 0.00 1 1017.7
20260507195649 26 86 3.2 11.3 0.00 0.00 0.00 1 1017.8
20260507195148 26 31 3.2 11.3 0.00 0.00 0.00 1 1018.0
20260507194652 26 50 3.2 9.7 0.00 0.00 0.00 2 1018.0
20260507194148 26 231 4.8 17.7 0.00 0.00 0.00 2 1018.0
20260507193647 25 298 6.4 17.7 0.00 0.00 0.00 2 1018.2
20260507193146 25 271 6.4 16.1 0.00 0.00 0.00 3 1018.2